This is the latest recevied weather packets stored in our database for station/object KI8L. If no packets are shown the sender has not sent any weather packets the latest 10 day(s).
| Time | Temp. | Humidity | Pressure | Rain* | Wind** | Luminosity | Snow |
|---|---|---|---|---|---|---|---|
| 1777470832 | 11.67° C | 99% | 1012.8 hPa | 0 mm | - | 67 W/m² | - |
| 1777470529 | 11.67° C | 99% | 1012.6 hPa | 0 mm | - | 78 W/m² | - |
| 1777470224 | 11.67° C | 99% | 1012.8 hPa | 1.27 mm | - | 61 W/m² | - |
| 1777469921 | 11.67° C | 99% | 1012.9 hPa | 1.27 mm | - | 30 W/m² | - |
| 1777469616 | 11.67° C | 99% | 1012.9 hPa | 0 mm | - | 53 W/m² | - |
| 1777469312 | 11.67° C | 99% | 1012.8 hPa | 0 mm | - | 42 W/m² | - |
| 1777469007 | 11.67° C | 99% | 1012.9 hPa | 0 mm | - | 144 W/m² | - |
| 1777468703 | 11.67° C | 99% | 1012.7 hPa | 1.78 mm | - | 160 W/m² | - |
| 1777468399 | 11.67° C | 99% | 1012.7 hPa | 1.78 mm | - | 137 W/m² | - |
| 1777468095 | 11.67° C | 99% | 1012.9 hPa | 1.27 mm | - | 65 W/m² | - |
| 1777467792 | 11.67° C | 99% | 1013 hPa | 4.32 mm | - | 43 W/m² | - |
| 1777467487 | 11.67° C | 99% | 1013 hPa | 6.1 mm | - | 49 W/m² | - |
| 1777467183 | 11.67° C | 99% | 1013.2 hPa | 4.83 mm | - | 18 W/m² | - |
| 1777466880 | 11.67° C | 99% | 1013.1 hPa | 3.05 mm | - | 10 W/m² | - |
| 1777466578 | 11.67° C | 99% | 1012.8 hPa | 1.27 mm | - | 15 W/m² | - |
| 1777466274 | 11.67° C | 99% | 1012.9 hPa | 0 mm | - | 13 W/m² | - |
| 1777465970 | 11.67° C | 99% | 1012.8 hPa | 0 mm | - | 25 W/m² | - |
| 1777465666 | 11.67° C | 99% | 1012.6 hPa | 0 mm | - | 71 W/m² | - |
| 1777465362 | 11.67° C | 99% | 1012.8 hPa | 0 mm | - | 118 W/m² | - |
| 1777465061 | 11.67° C | 99% | 1012.5 hPa | 0 mm | - | 125 W/m² | - |
| 1777464757 | 11.67° C | 99% | 1012.7 hPa | 0 mm | - | 69 W/m² | - |
| 1777464453 | 11.67° C | 99% | 1012.7 hPa | 1.78 mm | - | 77 W/m² | - |
| 1777464149 | 11.11° C | 99% | 1012.7 hPa | 3.05 mm | - | 81 W/m² | - |
| 1777463848 | 11.11° C | 99% | 1013 hPa | 1.27 mm | - | 41 W/m² | - |
| 1777463544 | 11.11° C | 99% | 1013.4 hPa | 0 mm | - | 15 W/m² | - |
* Rain latest hour (hover to see other rain measurements)
** Current wind speed in m/s (hover to see current wind gust speed)